Weather History for Reidsville, NC

Change the Weather History Date:

Saturday, May 4, 2013

  Actual Average (KGSO) Record (KGSO)
Temperature  
Mean Temperature 54 °F 64 °F  
Max Temperature 60 °F 75 °F 94 °F (1928)
Min Temperature 48 °F 52 °F 33 °F (1986)
Degree Days  
Heating Degree Days 11 4  
Month to date heating degree days 16  
Since 1 July heating degree days 3562  
Cooling Degree Days 0 2  
Month to date cooling degree days 8  
Year to date cooling degree days 46  
Growing Degree Days 4 (Base 50)    
Moisture  
Dew Point 45 °F    
Average Humidity 76    
Maximum Humidity 86    
Minimum Humidity 60    
Precipitation  
Precipitation 0.00 in 0.10 in 3.11 in (1978)
Month to date precipitation 0.41  
Year to date precipitation 13.73  
Sea Level Pressure  
Sea Level Pressure 30.17 in    
Wind  
Wind Speed 4 mph (NE)    
Max Wind Speed 10 mph    
Max Gust Speed 18 mph    
Visibility 10 miles    
Events      
T = Trace of Precipitation, MM = Missing Value Source: NWS Daily Summary

Daily Weather History Graph

Daily Weather History Graph

Search for Another Location

Airport:

Trip Planner

Search our weather history database for the weather conditions in past years. The results will help you decide how hot, cold, wet, or windy it might be!

Date:

Astronomy

May. 04, 2013 Rise Set
Actual Time 6:22 AM EDT 8:10 PM EDT
Civil Twilight 5:54 AM EDT 8:38 PM EDT
Nautical Twilight 5:21 AM EDT 9:12 PM EDT
Astronomical Twilight 4:45 AM EDT 9:48 PM EDT
Moon 3:11 AM EDT (5/4) 3:14 PM EDT (5/4)
Length of Visible Light 14h 43m
Length of Day
13h 47m
Waning Crescent, 27% of the Moon is Illuminated
May 4
Waning Crescent
May 9
New
May 18
First Quarter
May 25
Full
May 31
Last Quarter

Hourly Weather History & Observations

Time (EDT) Temp. Dew Point Humidity Pressure Visibility Wind Dir Wind Speed Gust Speed Precip Events Conditions
12:15 AM 51.8 °F 43.2 °F 72% 30.24 in 10.0 mi ENE 4.6 mph - N/A   Clear
12:35 AM 51.1 °F 43.2 °F 74% 30.24 in 10.0 mi Calm Calm - N/A   Clear
12:55 AM 50.2 °F 43.2 °F 77% 30.24 in 10.0 mi Calm Calm - N/A   Clear
1:15 AM 49.3 °F 43.3 °F 80% 30.23 in 10.0 mi Calm Calm - N/A   Clear
1:35 AM 48.4 °F 43.3 °F 83% 30.22 in 10.0 mi NE 3.5 mph - N/A   Scattered Clouds
1:55 AM 48.2 °F 42.8 °F 82% 30.21 in 10.0 mi Calm Calm - N/A   Clear
2:15 AM 48.4 °F 42.8 °F 81% 30.21 in 10.0 mi NE 3.5 mph - N/A   Mostly Cloudy
2:35 AM 48.7 °F 42.8 °F 80% 30.20 in 10.0 mi Calm Calm - N/A   Overcast
2:55 AM 48.4 °F 42.8 °F 81% 30.20 in 10.0 mi Calm Calm - N/A   Mostly Cloudy
3:15 AM 49.1 °F 43.2 °F 80% 30.20 in 10.0 mi NE 4.6 mph - N/A   Overcast
3:35 AM 49.3 °F 43.2 °F 79% 30.20 in 10.0 mi NE 4.6 mph - N/A   Overcast
3:55 AM 49.3 °F 43.0 °F 79% 30.20 in 10.0 mi NE 5.8 mph - N/A   Overcast
4:15 AM 49.1 °F 43.0 °F 79% 30.20 in 10.0 mi NE 5.8 mph - N/A   Overcast
4:35 AM 48.6 °F 42.8 °F 80% 30.20 in 10.0 mi NE 4.6 mph - N/A   Overcast
4:55 AM 48.4 °F 42.6 °F 80% 30.20 in 10.0 mi NE 6.9 mph - N/A   Overcast
5:15 AM 48.4 °F 42.4 °F 80% 30.21 in 10.0 mi NE 3.5 mph - N/A   Overcast
5:35 AM 48.2 °F 42.4 °F 80% 30.21 in 10.0 mi Calm Calm - N/A   Overcast
5:55 AM 48.2 °F 42.6 °F 81% 30.21 in 10.0 mi NNE 3.5 mph - N/A   Overcast
6:15 AM 48.0 °F 42.1 °F 80% 30.20 in 10.0 mi NNE 6.9 mph - N/A   Overcast
6:35 AM 48.2 °F 41.9 °F 79% 30.20 in 10.0 mi NE 4.6 mph - N/A   Overcast
6:55 AM 48.2 °F 41.9 °F 79% 30.20 in 10.0 mi NE 5.8 mph - N/A   Overcast
7:15 AM 48.2 °F 41.9 °F 79% 30.21 in 10.0 mi NNE 4.6 mph - N/A   Overcast
7:35 AM 48.2 °F 41.7 °F 78% 30.21 in 10.0 mi NNE 3.5 mph - N/A   Overcast
7:55 AM 48.2 °F 41.7 °F 78% 30.22 in 10.0 mi NNE 6.9 mph - N/A   Overcast
8:15 AM 48.2 °F 41.9 °F 79% 30.22 in 10.0 mi NE 4.6 mph - N/A   Overcast
8:35 AM 48.2 °F 41.9 °F 79% 30.22 in 10.0 mi NE 4.6 mph - N/A   Overcast
8:55 AM 48.2 °F 42.3 °F 80% 30.22 in 10.0 mi NE 3.5 mph - N/A   Overcast
9:15 AM 48.2 °F 42.8 °F 82% 30.22 in 10.0 mi ENE 6.9 mph - N/A   Overcast
9:35 AM 48.6 °F 43.3 °F 82% 30.22 in 10.0 mi NE 4.6 mph - N/A   Overcast
9:55 AM 48.7 °F 43.7 °F 83% 30.21 in 10.0 mi ENE 4.6 mph - N/A   Overcast
10:15 AM 49.3 °F 43.9 °F 82% 30.21 in 10.0 mi NE 3.5 mph - N/A   Overcast
10:35 AM 50.9 °F 44.4 °F 78% 30.21 in 10.0 mi ENE 5.8 mph - N/A   Overcast
10:55 AM 50.9 °F 44.2 °F 78% 30.21 in 10.0 mi NE 6.9 mph - N/A   Overcast
11:15 AM 51.8 °F 44.4 °F 76% 30.21 in 10.0 mi NE 4.6 mph - N/A   Overcast
11:35 AM 52.2 °F 44.4 °F 75% 30.20 in 10.0 mi NE 6.9 mph - N/A   Overcast
11:55 AM 53.4 °F 44.6 °F 72% 30.20 in 10.0 mi ENE 8.1 mph - N/A   Overcast
12:15 PM 54.5 °F 44.6 °F 69% 30.19 in 10.0 mi NE 5.8 mph - N/A   Mostly Cloudy
12:35 PM 55.8 °F 44.6 °F 66% 30.18 in 10.0 mi ENE 6.9 mph - N/A   Overcast
12:55 PM 55.8 °F 44.6 °F 66% 30.18 in 10.0 mi NNE 6.9 mph - N/A   Overcast
1:15 PM 56.5 °F 43.7 °F 62% 30.17 in 10.0 mi ENE 9.2 mph 18.4 mph N/A   Overcast
1:35 PM 58.1 °F 44.4 °F 60% 30.16 in 10.0 mi NNE 8.1 mph - N/A   Overcast
1:55 PM 58.6 °F 45.1 °F 61% 30.16 in 10.0 mi ENE 4.6 mph - N/A   Overcast
2:15 PM 59.0 °F 45.9 °F 62% 30.16 in 10.0 mi East 5.8 mph - N/A   Overcast
2:35 PM 58.5 °F 45.3 °F 62% 30.15 in 10.0 mi East 5.8 mph 17.3 mph N/A   Overcast
2:55 PM 58.6 °F 45.7 °F 62% 30.14 in 10.0 mi ENE 6.9 mph - N/A   Overcast
3:15 PM 59.2 °F 45.7 °F 61% 30.14 in 10.0 mi ENE 9.2 mph - N/A   Mostly Cloudy
3:35 PM 59.5 °F 46.4 °F 62% 30.13 in 10.0 mi NE 9.2 mph - N/A   Mostly Cloudy
3:55 PM 59.4 °F 46.4 °F 62% 30.13 in 10.0 mi NE 10.4 mph 18.4 mph N/A   Mostly Cloudy
4:15 PM 60.1 °F 46.8 °F 61% 30.12 in 10.0 mi ENE 8.1 mph - N/A   Scattered Clouds
4:35 PM 58.1 °F 46.6 °F 65% 30.13 in 10.0 mi NE 9.2 mph - N/A   Mostly Cloudy
4:55 PM 56.5 °F 47.1 °F 71% 30.13 in 10.0 mi Calm Calm - N/A   Overcast
5:15 PM 56.7 °F 47.8 °F 72% 30.12 in 10.0 mi NE 5.8 mph - N/A   Overcast
5:35 PM 56.7 °F 48.2 °F 73% 30.11 in 10.0 mi NE 5.8 mph - N/A   Overcast
5:55 PM 57.4 °F 48.2 °F 71% 30.11 in 10.0 mi NE 4.6 mph - N/A   Overcast
6:15 PM 57.7 °F 48.6 °F 71% 30.11 in 10.0 mi ENE 5.8 mph - N/A   Overcast
6:35 PM 56.8 °F 48.4 °F 73% 30.12 in 10.0 mi NNE 8.1 mph - N/A   Overcast
6:55 PM 56.7 °F 48.6 °F 74% 30.12 in 10.0 mi NE 5.8 mph - N/A   Overcast
7:15 PM 56.3 °F 48.6 °F 75% 30.12 in 10.0 mi Calm Calm - N/A   Overcast
7:35 PM 55.9 °F 48.7 °F 77% 30.12 in 10.0 mi NE 6.9 mph - N/A   Overcast
7:55 PM 55.4 °F 48.9 °F 79% 30.12 in 10.0 mi NE 5.8 mph - N/A   Overcast
8:15 PM 55.4 °F 49.1 °F 79% 30.13 in 10.0 mi Calm Calm - N/A   Overcast
8:35 PM 55.4 °F 49.5 °F 80% 30.13 in 10.0 mi NE 3.5 mph - N/A   Overcast
8:55 PM 55.4 °F 49.6 °F 81% 30.13 in 10.0 mi NNE 3.5 mph - N/A   Overcast
9:15 PM 55.4 °F 50.0 °F 82% 30.13 in 10.0 mi NE 3.5 mph - N/A   Overcast
9:35 PM 55.4 °F 50.0 °F 82% 30.13 in 10.0 mi ENE 4.6 mph - N/A   Overcast
9:55 PM 55.4 °F 50.2 °F 83% 30.13 in 10.0 mi NE 4.6 mph - N/A   Overcast
10:15 PM 55.4 °F 50.2 °F 83% 30.14 in 10.0 mi Calm Calm - N/A   Overcast
10:35 PM 54.9 °F 50.5 °F 85% 30.14 in 10.0 mi NE 3.5 mph - N/A   Overcast
10:55 PM 54.7 °F 50.5 °F 86% 30.12 in 10.0 mi NE 4.6 mph - N/A   Overcast
11:35 PM 54.7 °F 50.2 °F 85% 30.11 in 10.0 mi NE 4.6 mph - N/A   Overcast
11:55 PM 54.9 °F 50.0 °F 84% 30.12 in 10.0 mi Calm Calm - N/A   Overcast